• MPC Preparation (Info)

  • MPEC 2015-S95 : 2015 SX16

    The following Minor Planet Electronic Circular may be linked-to from your own Web pages, but must not otherwise be redistributed electronically.

    A form allowing access to any MPEC is at the bottom of this page.


    Read MPEC 2015-S94 Read MPEC 2015-S96


    M.P.E.C. 2015-S95                                Issued 2015 Sept. 27, 14:15 UT
    
         The Minor Planet Electronic Circulars contain information on unusual
             minor planets and routine data on comets.  They are published
        on behalf of Division F of the International Astronomical Union by the
              Minor Planet Center, Smithsonian Astrophysical Observatory,
                              Cambridge, MA 02138, U.S.A.
    
                 Prepared using the Tamkin Foundation Computer Network
    
                                  MPC@CFA.HARVARD.EDU
                URL https://www.minorplanetcenter.net/    ISSN 1523-6714
    
                                       2015 SX16
    
    Observations:
         K15S16X* C2015 09 22.57086 05 18 53.224-03 30 51.11         20.7 wLES095F51
         K15S16X  C2015 09 22.58059 05 18 53.612-03 30 41.66         20.5 wLES095F51
         K15S16X  C2015 09 22.59033 05 18 54.002-03 30 32.49         20.7 wLES095F51
         K15S16X  C2015 09 22.60007 05 18 54.399-03 30 23.32         20.7 wLES095F51
         K15S16X  C2015 09 23.57726 05 19 35.853-03 14 59.42         20.5 wLES095F51
         K15S16X  C2015 09 23.60058 05 19 36.717-03 14 37.53         20.8 wLES095F51
         K15S16X  C2015 09 23.61225 05 19 37.149-03 14 26.11         20.3 wLES095F51
         K15S16X  C2015 09 24.57535 05 20 15.492-02 59 07.31         20.8 wLES095F51
         K15S16X  C2015 09 24.59872 05 20 16.294-02 58 44.92         20.6 wLES095F51
         K15S16X  C2015 09 24.61035 05 20 16.698-02 58 33.85         20.7 wLES095F51
         K15S16X |C2015 09 27.34432 05 21 51.20 -02 14 06.2          20.0 VuES095807
         K15S16X |C2015 09 27.35107 05 21 51.36 -02 14 00.1          19.9 VuES095807
         K15S16X |C2015 09 27.35763 05 21 51.55 -02 13 53.7          19.7 VuES095807
    
    Observer details:
    807 Cerro Tololo.  Observers T. Linder, R. Holmes.  0.61-m f/6.5 astrograph
        + CCD.
    F51 Pan-STARRS 1, Haleakala.  Observers B. Gibson, T. Goggia, N. Primak,
        A. Schultz, M. Willman.  Measurers K. Chambers, S. Chastel, L. Denneau,
        H. Flewelling, M. Huber, E. Lilly, E. Magnier, R. Wainscoat, C. Waters,
        R. Weryk.  1.8-m Ritchey-Chretien + CCD.
    
    Orbital elements:
    2015 SX16                                                Earth MOID = 0.5532 AU
    Epoch 2015 June 27.0 TT = JDT 2457200.5                 MPC
    M 353.34389              (2000.0)            P               Q
    n   0.23627695     Peri.  278.83567     +0.86140582     +0.27928576
    a   2.5913246      Node    65.90290     -0.01643253     +0.85014065
    e   0.4986038      Incl.   27.69338     -0.50765144     +0.44638586
    P   4.17           H   18.3           G   0.15           U   7
    Residuals in seconds of arc
    150922 F51  0.0   0.3-    150923 F51  0.1-  0.1-    150927 807  0.2+  0.4+
    150922 F51  0.0   0.0     150923 F51  0.1-  0.3+    150927 807  0.2-  0.1-
    150922 F51  0.0   0.0     150924 F51  0.1+  0.1-    150927 807  0.0   0.2-
    150922 F51  0.1+  0.1+    150924 F51  0.0   0.0
    150923 F51  0.0   0.1+    150924 F51  0.0   0.1-
    
    Ephemeris:
    2015 SX16                a,e,i = 2.59, 0.50, 28                  q = 1.2993
    Date    TT    R. A. (2000) Decl.     Delta      r     Elong.  Phase     V
    2015 08 28    04 47 16.2 -09 45 05   0.9634  1.3477    86.1    48.4    20.7
    ...
    2015 09 12    05 08 49.6 -06 10 09   0.9196  1.3971    92.9    46.0    20.6
    ...
    2015 09 20    05 16 51.9 -04 10 40   0.8914  1.4291    97.7    44.2    20.5
    ...
    2015 09 26    05 21 07.1 -02 36 09   0.8688  1.4554   101.8    42.4    20.5
    2015 09 27    05 21 40.2 -02 19 51   0.8650  1.4599   102.6    42.1    20.4
    2015 09 28    05 22 10.5 -02 03 23   0.8611  1.4645   103.4    41.7    20.4
    ...
    2015 10 04    05 24 11.4 -00 20 35   0.8378  1.4930   108.3    39.5    20.4
    ...
    2015 10 12    05 23 56.7 +02 09 16   0.8076  1.5332   115.8    35.9    20.2
    ...
    2015 10 27    05 13 31.6 +07 37 53   0.7634  1.6141   133.0    26.8    20.0
    
    A. U. Tomatic                (C) Copyright 2015 MPC           M.P.E.C. 2015-S95
    

    Read MPEC 2015-S94 Read MPEC 2015-S96


    MPEC number:

    Enter an MPEC number in one of the following forms:

    • 1997-B01 (the full form)
    • J97B01 (the packed version of the full form)
    • B01 (the abbreviated form)